« Back
NWS Peachtree City, Ga » Text Product » GA Regional Weather Roundup


Printer-friendly Version
Current Version              Previous Versions:   1  2  3  4  5  6  7  8  9  

Regional Weather Roundup

914
ASUS42 KFFC 292303
RWRGA
WEATHER ROUNDUP FOR GEORGIA
NATIONAL WEATHER SERVICE PEACHTREE CITY GA
700 PM EDT WED JUN 29 2016

NOTE: "FAIR" INDICATES FEW OR NO CLOUDS BELOW 12,000 FEET WITH NO
SIGNIFICANT WEATHER AND/OR OBSTRUCTIONS TO VISIBILITY.

* = USE WITH CAUTION. THE STATIONS MARKED WITH AN ASTERISK MAY NOT
REPORT WEATHER SUCH AS PRECIPITATION, FOG, OR THUNDER AND ARE NOT
QUALITY CONTROLLED BY NWS.

THE REMARK "TC" DENOTES TEMPERATURE READING IN DEGREES CELSIUS.

GAZ001>058-300000-
NORTH GEORGIA

CITY           SKY/WX    TMP DP  RH WIND       PRES   REMARKS
ATLANTA        MOSUNNY   92  59  33 NW7       29.92S HX  91
ATHENS         SUNNY     90  65  43 VRB6      29.91R HX  92
CHAMBLEE       PTSUNNY   93  60  33 W7        29.92S HX  93
PEACHTREE CITY SUNNY     92  64  39 W3        29.92S HX  93
ROME           MOSUNNY   93  60  33 NW7       29.90F HX  93
WEST ATLANTA   SUNNY     91  59  33 NW9       29.91F HX  90
GAINESVILLE    MOSUNNY   90  61  37 NW8       29.95S HX  90
CARTERSVILLE   SUNNY     91  63  39 VRB5      29.91F HX  92


CITY           SKY/WX    TMP DP  RH WIND       PRES   REMARKS
DALTON*        SUNNY     88  61  40 N9        29.93S
LAWRENCEVILLE* MOSUNNY   90  66  45 CALM      29.93S HX  92
MARIETTA       MOSUNNY   91  63  38 W8        29.93S HX  91
KENNESAW*      MOSUNNY   91  61  35 W8        29.86F HX  91
CANTON*        SUNNY     90  43  19 NW5       29.95R
$$

GAZ059>098-102>109-300000-
CENTRAL GEORGIA

CITY           SKY/WX    TMP DP  RH WIND       PRES   REMARKS
AUGUSTA-BUSH   MOSUNNY   85  73  67 SE9       29.91F HX  91
AUGUSTA-DANIEL SUNNY     88  69  53 SE9       29.93S HX  92
COLUMBUS       MOSUNNY   85  70  60 SW9       29.91S
MACON          MOSUNNY   88  67  49 S6        29.91F HX  91
ROBINS AFB     MOSUNNY   88  71  58 S5        29.91S HX  94


CITY           SKY/WX    TMP DP  RH WIND       PRES   REMARKS
LAGRANGE*      MOSUNNY   95  68  41 W5        29.91S HX  99
SYLVANIA*      PTSUNNY   82  75  78 CALM      29.94F
MILLEDGEVILLE* MOSUNNY   86  73  66 CALM      29.92S HX  93
$$

GAZ099>101-110>166-300000-
SOUTH GEORGIA

CITY           SKY/WX    TMP DP  RH WIND       PRES   REMARKS
SAVANNAH       LGT RAIN  76  69  79 VRB3      29.94F
VALDOSTA       CLOUDY    77  75  93 E7        29.98R
ALMA           HVY RAIN  76  75  97 S14       29.97R VSB 1/2
ST SIMONS      CLOUDY    81  76  84 CALM      29.95F
FT STEWART     LGT RAIN  79  73  80 SE1       29.92F
ALBANY         CLOUDY    84  67  56 SW6       29.93F
HUNTER AFB     CLOUDY    77  74  91 S3        29.92F
MOODY AFB      TSTM      74  71  89 NE13      29.99R
BRUNSWICK      CLOUDY    82  79  89 CALM      29.97R HX  93


CITY           SKY/WX    TMP DP  RH WIND       PRES   REMARKS
BAINBRIDGE*    CLOUDY    77  73  88 SW7       29.95S
MOULTRIE*      TSTM      73  72  94 CALM      29.96S
VIDALIA*       PTSUNNY   82  72  69 SE3       29.94R
WAYCROSS*      TSTM      80  77  92 SW5       29.97S
DOUGLAS*       CLOUDY    73  72  94 SW10      29.97R
$$




USA.gov is the U.S. government's official web portal to all federal, state and local government web resources and services.